QPF
0.01 0.01 0.01 0.02 0.02 0.01 0.01 0.01 0.01 0.02 0.02 0.03 0.03 0.03 0.02 0.02 0.01 0.02 0.03 0.02 0.02 0.02 0.03 0.04 0.04 0.05 0.04 0.03 0.04 0.04 0.04 0.04 0.04 0.03 0.04 0.06 0.06 0.06 0.06 0.06 0.05 0.04 0.04
0.02 0.02 0.01 0.01 0.01 0.01 0.01 0.02 0.01 0.02 0.02 0.02 0.01 0.01 0.01 0.01 0.01 0.02 0.02 0.01 0.01 0.02 0.02 0.03 0.03 0.04 0.04 0.05 0.05 0.05 0.05 0.04 0.03 0.03 0.04 0.04 0.04 0.04 0.05 0.04 0.03 0.02 0.02
0.01 0.01 0.01 0.01 0.01 0.01 0.01 0.01 0.01 0.02 0.02 0.02 0.02 0.02 0.01 0.02 0.02 0.01 0.01 0.01 0.01 0.01 0.02 0.02 0.03 0.04 0.04 0.04 0.05 0.05 0.04 0.04 0.04 0.04 0.03 0.02 0.02 0.02 0.02 0.02 0.02 0.02 0.01
0.01 0.01 0.01 0.02 0.03 0.02 0.01 0.02 0.02 0.03 0.03 0.04 0.03 0.01 0.02 0.02 0.02 0.02 0.02 0.02 0.02 0.02 0.02 0.02 0.02 0.03 0.04 0.04 0.04 0.03 0.04 0.04 0.04 0.03 0.02 0.02 0.01 0.01 0.01 0.01 0.02 0.02 0.02
0.02 0.02 0.02 0.02 0.02 0.03 0.03 0.03 0.02 0.02 0.03 0.05 0.02 0.01 0.01 0.02 0.02 0.03 0.03 0.02 0.03 0.03 0.03 0.03 0.03 0.04 0.04 0.04 0.03 0.03 0.03 0.03 0.02 0.02 0.02 0.02 0.03 0.04 0.03 0.03 0.02 0.02 0.02
0.02 0.02 0.02 0.02 0.03 0.05 0.05 0.03 0.01 0.01 0.02 0.01 0.01 0.01 0.01 0.00 0.01 0.01 0.02 0.02 0.02 0.03 0.03 0.02 0.03 0.03 0.02 0.02 0.03 0.02 0.02 0.01 0.01 0.02 0.03 0.04 0.05 0.04 0.04 0.03 0.03 0.03 0.03
0.01 0.01 0.02 0.02 0.02 0.04 0.03 0.02 0.01 0.01 0.02 0.02 0.01 0.01 0.01 0.01 0.01 0.01 0.01 0.01 0.02 0.02 0.02 0.02 0.02 0.02 0.02 0.01 0.01 0.01 0.01 0.01 0.01 0.01 0.01 0.02 0.03 0.03 0.02 0.02 0.03 0.02 0.02
0.01 0.01 0.01 0.01 0.01 0.01 0.01 0.01 0.01 0.01 0.01 0.01 0.01 0.01 0.01 0.01 0.02 0.01 0.01 0.01 0.01 0.01 0.02 0.03 0.03 0.03 0.03 0.02 0.02 0.02 0.02 0.02 0.01 0.01 0.01 0.01 0.01 0.01 0.01 0.02 0.02 0.02 0.02
0.01 0.01 0.00 0.00 0.01 0.01 0.01 0.01 0.01 0.01 0.01 0.01 0.02 0.02 0.03 0.03 0.03 0.04 0.05 0.03 0.03 0.04 0.03 0.03 0.03 0.03 0.04 0.04 0.03 0.03 0.02 0.02 0.01 0.01 0.01 0.01 0.00 0.00 0.01 0.01 0.01 0.01 0.01
0.01 0.01 0.01 0.00 0.00 0.01 0.01 0.01 0.02 0.02 0.02 0.03 0.04 0.06 0.08 0.08 0.08 0.08 0.11 0.09 0.06 0.07 0.07 0.06 0.06 0.05 0.05 0.05 0.04 0.03 0.02 0.01 0.01 0.01 0.00 0.00 0.00 0.00 0.00 0.01 0.01 0.02 0.02
0.01 0.01 0.01 0.00 0.00 0.01 0.02 0.03 0.05 0.04 0.03 0.04 0.06 0.08 0.09 0.09 0.08 0.07 0.08 0.11 0.09 0.08 0.09 0.08 0.06 0.04 0.04 0.04 0.04 0.02 0.01 0.01 0.00 0.00 0.00 0.00 0.00 0.00 0.00 0.00 0.00 0.01 0.01
0.02 0.02 0.01 0.01 0.01 0.01 0.02 0.03 0.04 0.04 0.05 0.07 0.09 0.11 0.11 0.10 0.08 0.08 0.09 0.09 0.08 0.06 0.06 0.04 0.03 0.02 0.02 0.02 0.02 0.01 0.00 0.00 0.00 0.00 0.00 0.00 0.00 0.00 0.00 0.01 0.01 0.00 0.00
0.03 0.03 0.02 0.01 0.01 0.02 0.03 0.04 0.04 0.02 0.02 0.02 0.01 0.01 0.02 0.03 0.03 0.03 0.05 0.08 0.08 0.05 0.04 0.02 0.01 0.01 0.01 0.00 0.00 0.00 0.00 0.00 0.00 0.00 0.00 0.00 0.00 0.01 0.01 0.01 0.01 0.01 0.01
0.03 0.04 0.04 0.04 0.03 0.03 0.03 0.03 0.03 0.02 0.01 0.01 0.01 0.01 0.01 0.01 0.01 0.01 0.01 0.02 0.03 0.03 0.02 0.02 0.01 0.01 0.01 0.00 0.00 0.00 0.00 0.00 0.00 0.00 0.01 0.01 0.01 0.01 0.01 0.01 0.02 0.01 0.01
0.05 0.05 0.05 0.04 0.03 0.03 0.02 0.02 0.02 0.02 0.01 0.01 0.01 0.01 0.01 0.02 0.02 0.01 0.01 0.00 0.01 0.01 0.01 0.01 0.01 0.01 0.01 0.00 0.00 0.01 0.00 0.00 0.00 0.00 0.01 0.01 0.01 0.01 0.01 0.01 0.02 0.02 0.02
0.04 0.03 0.02 0.02 0.01 0.02 0.02 0.02 0.02 0.02 0.02 0.01 0.02 0.02 0.02 0.02 0.02 0.01 0.01 0.01 0.01 0.01 0.01 0.01 0.01 0.01 0.01 0.01 0.01 0.01 0.01 0.01 0.01 0.01 0.01 0.01 0.01 0.01 0.00 0.00 0.01 0.01 0.01
0.07 0.05 0.02 0.02 0.01 0.02 0.03 0.02 0.02 0.02 0.02 0.02 0.02 0.03 0.03 0.03 0.02 0.02 0.01 0.01 0.01 0.01 0.01 0.01 0.02 0.02 0.01 0.02 0.02 0.01 0.01 0.01 0.01 0.01 0.01 0.01 0.01 0.01 0.01 0.01 0.01 0.01 0.01
0.08 0.06 0.03 0.02 0.02 0.03 0.03 0.03 0.03 0.02 0.03 0.03 0.03 0.03 0.03 0.02 0.02 0.02 0.02 0.02 0.01 0.01 0.01 0.01 0.01 0.01 0.02 0.02 0.03 0.03 0.03 0.03 0.03 0.02 0.02 0.02 0.02 0.02 0.01 0.01 0.01 0.01 0.01
0.05 0.04 0.02 0.03 0.03 0.03 0.03 0.02 0.02 0.03 0.03 0.04 0.04 0.04 0.03 0.02 0.01 0.01 0.01 0.01 0.01 0.01 0.01 0.01 0.01 0.02 0.02 0.03 0.03 0.03 0.03 0.03 0.03 0.03 0.03 0.03 0.03 0.03 0.02 0.02 0.01 0.01 0.01
0.06 0.04 0.03 0.03 0.03 0.03 0.03 0.02 0.02 0.02 0.02 0.02 0.02 0.02 0.02 0.01 0.01 0.01 0.01 0.01 0.01 0.01 0.01 0.01 0.01 0.01 0.01 0.01 0.01 0.01 0.01 0.01 0.02 0.02 0.02 0.02 0.03 0.03 0.03 0.03 0.02 0.02 0.01
0.08 0.07 0.05 0.04 0.04 0.03 0.02 0.02 0.02 0.02 0.02 0.02 0.03 0.02 0.02 0.02 0.01 0.01 0.01 0.01 0.01 0.01 0.01 0.01 0.01 0.01 0.01 0.01 0.01 0.01 0.01 0.01 0.01 0.01 0.01 0.02 0.02 0.02 0.02 0.02 0.02 0.01 0.01
0.05 0.04 0.02 0.03 0.02 0.02 0.02 0.02 0.02 0.02 0.01 0.02 0.02 0.02 0.01 0.01 0.01 0.01 0.00 0.00 0.00 0.00 0.01 0.01 0.02 0.02 0.02 0.02 0.02 0.02 0.02 0.02 0.02 0.02 0.01 0.01 0.01 0.01 0.01 0.01 0.01 0.01 0.01
0.04 0.02 0.02 0.02 0.02 0.02 0.02 0.02 0.01 0.01 0.01 0.01 0.02 0.02 0.02 0.01 0.01 0.01 0.01 0.01 0.01 0.01 0.01 0.02 0.01 0.01 0.01 0.02 0.02 0.02 0.02 0.02 0.02 0.02 0.02 0.02 0.01 0.01 0.01 0.01 0.01 0.01 0.01
0.01 0.01 0.01 0.02 0.02 0.02 0.01 0.01 0.01 0.01 0.01 0.01 0.02 0.02 0.02 0.02 0.03 0.03 0.03 0.03 0.03 0.02 0.02 0.02 0.02 0.02 0.02 0.02 0.03 0.03 0.03 0.02 0.02 0.02 0.02 0.02 0.02 0.01 0.01 0.01 0.02 0.02 0.02
0.01 0.01 0.01 0.01 0.01 0.02 0.03 0.03 0.02 0.02 0.02 0.02 0.02 0.02 0.02 0.02 0.02 0.02 0.02 0.01 0.01 0.01 0.01 0.01 0.01 0.01 0.01 0.01 0.01 0.01 0.02 0.02 0.02 0.02 0.02 0.02 0.02 0.02 0.02 0.02 0.02 0.02 0.02
0.01 0.02 0.02 0.02 0.02 0.02 0.03 0.04 0.04 0.04 0.04 0.03 0.03 0.03 0.03 0.02 0.02 0.02 0.02 0.01 0.01 0.01 0.01 0.01 0.00 0.00 0.00 0.00 0.01 0.01 0.01 0.01 0.01 0.01 0.01 0.01 0.01 0.01 0.02 0.02 0.02 0.02 0.01
MSLP
1014.47 1014.66 1014.82 1014.93 1014.97 1014.94 1014.84 1014.70 1014.55 1014.42 1014.34 1014.32 1014.38 1014.51 1014.68 1014.88 1015.09 1015.28 1015.46 1015.61 1015.75 1015.89 1016.03 1016.19 1016.37 1016.59 1016.84 1017.14 1017.48 1017.87 1018.31 1018.80 1019.33 1019.89 1020.45 1020.99 1021.49 1021.92 1022.27 1022.52 1022.69 1022.79 1022.82
1014.25 1014.45 1014.62 1014.74 1014.79 1014.77 1014.69 1014.56 1014.42 1014.31 1014.24 1014.23 1014.29 1014.41 1014.57 1014.76 1014.95 1015.13 1015.29 1015.44 1015.57 1015.70 1015.83 1015.98 1016.15 1016.35 1016.60 1016.89 1017.22 1017.62 1018.06 1018.56 1019.10 1019.66 1020.24 1020.80 1021.32 1021.77 1022.14 1022.43 1022.63 1022.77 1022.86
1013.94 1014.19 1014.40 1014.56 1014.64 1014.65 1014.60 1014.50 1014.39 1014.29 1014.23 1014.22 1014.27 1014.37 1014.50 1014.66 1014.82 1014.97 1015.10 1015.23 1015.34 1015.46 1015.58 1015.72 1015.89 1016.08 1016.32 1016.59 1016.92 1017.29 1017.72 1018.21 1018.73 1019.29 1019.86 1020.42 1020.94 1021.40 1021.79 1022.10 1022.35 1022.54 1022.69
1013.54 1013.86 1014.14 1014.36 1014.50 1014.57 1014.56 1014.51 1014.44 1014.36 1014.31 1014.30 1014.33 1014.39 1014.48 1014.59 1014.70 1014.81 1014.92 1015.01 1015.11 1015.21 1015.32 1015.46 1015.61 1015.80 1016.02 1016.27 1016.57 1016.92 1017.32 1017.76 1018.25 1018.78 1019.32 1019.85 1020.36 1020.82 1021.22 1021.56 1021.84 1022.08 1022.29
1013.04 1013.44 1013.81 1014.11 1014.34 1014.48 1014.54 1014.55 1014.52 1014.48 1014.45 1014.43 1014.43 1014.46 1014.51 1014.56 1014.62 1014.69 1014.75 1014.82 1014.89 1014.98 1015.09 1015.22 1015.37 1015.55 1015.74 1015.98 1016.24 1016.54 1016.88 1017.27 1017.70 1018.17 1018.66 1019.15 1019.63 1020.08 1020.48 1020.84 1021.15 1021.43 1021.70
1012.43 1012.92 1013.38 1013.78 1014.10 1014.33 1014.48 1014.56 1014.59 1014.59 1014.58 1014.56 1014.55 1014.55 1014.55 1014.56 1014.57 1014.59 1014.62 1014.66 1014.72 1014.81 1014.92 1015.05 1015.20 1015.36 1015.54 1015.74 1015.95 1016.20 1016.47 1016.79 1017.14 1017.53 1017.96 1018.40 1018.84 1019.26 1019.66 1020.03 1020.36 1020.67 1020.97
1011.72 1012.28 1012.82 1013.31 1013.72 1014.05 1014.29 1014.46 1014.57 1014.63 1014.65 1014.66 1014.64 1014.62 1014.59 1014.56 1014.53 1014.52 1014.52 1014.55 1014.61 1014.70 1014.82 1014.95 1015.11 1015.27 1015.43 1015.59 1015.76 1015.94 1016.14 1016.37 1016.64 1016.95 1017.30 1017.68 1018.07 1018.47 1018.85 1019.22 1019.56 1019.88 1020.19
1010.91 1011.52 1012.12 1012.68 1013.18 1013.60 1013.94 1014.20 1014.39 1014.53 1014.61 1014.65 1014.65 1014.63 1014.59 1014.54 1014.49 1014.45 1014.44 1014.47 1014.54 1014.64 1014.77 1014.93 1015.09 1015.25 1015.40 1015.53 1015.66 1015.78 1015.90 1016.06 1016.25 1016.48 1016.76 1017.07 1017.42 1017.78 1018.15 1018.50 1018.84 1019.16 1019.47
1010.01 1010.64 1011.27 1011.89 1012.46 1012.96 1013.40 1013.76 1014.04 1014.26 1014.42 1014.51 1014.56 1014.55 1014.52 1014.46 1014.41 1014.37 1014.36 1014.39 1014.46 1014.58 1014.74 1014.91 1015.09 1015.26 1015.40 1015.51 1015.60 1015.67 1015.74 1015.83 1015.96 1016.12 1016.34 1016.61 1016.92 1017.25 1017.60 1017.94 1018.26 1018.58 1018.87
1009.08 1009.70 1010.34 1010.98 1011.60 1012.18 1012.70 1013.16 1013.54 1013.86 1014.10 1014.26 1014.35 1014.39 1014.38 1014.33 1014.28 1014.24 1014.24 1014.27 1014.36 1014.49 1014.66 1014.84 1015.03 1015.20 1015.34 1015.44 1015.51 1015.55 1015.59 1015.64 1015.72 1015.85 1016.03 1016.26 1016.55 1016.86 1017.19 1017.52 1017.84 1018.13 1018.41
1008.19 1008.77 1009.39 1010.05 1010.70 1011.33 1011.92 1012.47 1012.95 1013.36 1013.68 1013.92 1014.07 1014.15 1014.17 1014.14 1014.10 1014.06 1014.05 1014.09 1014.17 1014.30 1014.47 1014.66 1014.85 1015.02 1015.15 1015.25 1015.30 1015.34 1015.36 1015.39 1015.45 1015.56 1015.73 1015.96 1016.23 1016.54 1016.86 1017.19 1017.50 1017.78 1018.04
1007.44 1007.96 1008.55 1009.19 1009.85 1010.52 1011.17 1011.79 1012.35 1012.84 1013.24 1013.55 1013.76 1013.87 1013.92 1013.90 1013.86 1013.82 1013.80 1013.82 1013.89 1014.00 1014.15 1014.32 1014.50 1014.65 1014.78 1014.86 1014.92 1014.95 1014.97 1015.00 1015.07 1015.19 1015.37 1015.60 1015.88 1016.20 1016.53 1016.85 1017.16 1017.43 1017.68
1006.90 1007.36 1007.90 1008.52 1009.17 1009.86 1010.54 1011.21 1011.83 1012.38 1012.84 1013.20 1013.44 1013.59 1013.65 1013.65 1013.60 1013.54 1013.50 1013.48 1013.51 1013.59 1013.70 1013.83 1013.97 1014.10 1014.20 1014.27 1014.32 1014.35 1014.38 1014.43 1014.52 1014.66 1014.86 1015.11 1015.40 1015.73 1016.07 1016.40 1016.71 1016.99 1017.23
1006.66 1007.06 1007.55 1008.12 1008.75 1009.43 1010.12 1010.80 1011.45 1012.03 1012.52 1012.90 1013.17 1013.34 1013.40 1013.39 1013.33 1013.25 1013.17 1013.11 1013.10 1013.11 1013.17 1013.24 1013.32 1013.40 1013.47 1013.51 1013.54 1013.57 1013.61 1013.67 1013.78 1013.94 1014.16 1014.43 1014.74 1015.09 1015.43 1015.77 1016.09 1016.36 1016.60
1006.72 1007.06 1007.50 1008.03 1008.62 1009.27 1009.94 1010.61 1011.24 1011.82 1012.31 1012.70 1012.97 1013.13 1013.19 1013.17 1013.09 1012.98 1012.87 1012.77 1012.69 1012.65 1012.63 1012.64 1012.65 1012.67 1012.67 1012.68 1012.68 1012.69 1012.72 1012.79 1012.90 1013.07 1013.30 1013.58 1013.90 1014.24 1014.58 1014.92 1015.23 1015.51 1015.76
1007.06 1007.36 1007.75 1008.22 1008.77 1009.36 1009.99 1010.61 1011.21 1011.75 1012.21 1012.58 1012.84 1012.98 1013.04 1013.01 1012.92 1012.80 1012.66 1012.52 1012.39 1012.29 1012.20 1012.13 1012.07 1012.01 1011.95 1011.89 1011.85 1011.82 1011.82 1011.87 1011.97 1012.13 1012.34 1012.61 1012.91 1013.23 1013.56 1013.88 1014.17 1014.45 1014.69
1007.58 1007.85 1008.20 1008.62 1009.11 1009.65 1010.21 1010.77 1011.31 1011.80 1012.22 1012.55 1012.78 1012.92 1012.97 1012.94 1012.85 1012.72 1012.57 1012.42 1012.26 1012.11 1011.97 1011.83 1011.69 1011.55 1011.41 1011.28 1011.17 1011.08 1011.04 1011.04 1011.10 1011.21 1011.38 1011.61 1011.86 1012.14 1012.42 1012.70 1012.97 1013.22 1013.46
1008.18 1008.43 1008.75 1009.14 1009.57 1010.04 1010.54 1011.03 1011.50 1011.93 1012.30 1012.59 1012.80 1012.93 1012.99 1012.97 1012.90 1012.79 1012.66 1012.50 1012.34 1012.16 1011.98 1011.78 1011.58 1011.36 1011.14 1010.93 1010.74 1010.57 1010.45 1010.37 1010.36 1010.40 1010.50 1010.65 1010.83 1011.04 1011.26 1011.48 1011.70 1011.92 1012.14
1008.75 1009.01 1009.31 1009.66 1010.05 1010.47 1010.91 1011.34 1011.75 1012.13 1012.45 1012.72 1012.91 1013.04 1013.11 1013.12 1013.09 1013.02 1012.91 1012.78 1012.62 1012.44 1012.23 1012.00 1011.74 1011.45 1011.16 1010.86 1010.57 1010.31 1010.09 1009.91 1009.80 1009.74 1009.74 1009.79 1009.88 1009.99 1010.13 1010.27 1010.43 1010.60 1010.79
1009.24 1009.50 1009.81 1010.15 1010.51 1010.90 1011.29 1011.68 1012.05 1012.38 1012.68 1012.92 1013.11 1013.26 1013.35 1013.40 1013.40 1013.38 1013.31 1013.22 1013.08 1012.90 1012.69 1012.42 1012.12 1011.77 1011.40 1011.01 1010.63 1010.26 1009.93 1009.64 1009.40 1009.22 1009.10 1009.03 1009.01 1009.02 1009.06 1009.12 1009.21 1009.33 1009.49
1009.63 1009.91 1010.23 1010.57 1010.94 1011.31 1011.69 1012.05 1012.39 1012.70 1012.98 1013.22 1013.41 1013.57 1013.68 1013.77 1013.81 1013.83 1013.81 1013.74 1013.63 1013.47 1013.25 1012.96 1012.62 1012.22 1011.78 1011.31 1010.83 1010.35 1009.90 1009.48 1009.12 1008.80 1008.55 1008.36 1008.21 1008.11 1008.06 1008.04 1008.07 1008.14 1008.27
1009.96 1010.26 1010.60 1010.97 1011.34 1011.72 1012.10 1012.46 1012.80 1013.10 1013.37 1013.61 1013.80 1013.97 1014.10 1014.20 1014.27 1014.31 1014.32 1014.28 1014.18 1014.03 1013.80 1013.50 1013.13 1012.69 1012.18 1011.64 1011.06 1010.48 1009.91 1009.37 1008.87 1008.43 1008.04 1007.72 1007.46 1007.26 1007.12 1007.04 1007.02 1007.05 1007.16
1010.27 1010.61 1010.97 1011.36 1011.76 1012.16 1012.55 1012.92 1013.26 1013.57 1013.83 1014.06 1014.25 1014.41 1014.53 1014.64 1014.71 1014.75 1014.76 1014.73 1014.64 1014.48 1014.25 1013.94 1013.54 1013.06 1012.51 1011.89 1011.24 1010.57 1009.89 1009.23 1008.62 1008.05 1007.55 1007.12 1006.76 1006.48 1006.27 1006.13 1006.07 1006.09 1006.19
1010.64 1011.00 1011.38 1011.80 1012.22 1012.64 1013.04 1013.42 1013.76 1014.06 1014.32 1014.53 1014.70 1014.83 1014.93 1015.01 1015.06 1015.08 1015.08 1015.03 1014.93 1014.77 1014.53 1014.20 1013.79 1013.29 1012.71 1012.05 1011.34 1010.59 1009.83 1009.08 1008.36 1007.69 1007.09 1006.57 1006.13 1005.78 1005.53 1005.36 1005.29 1005.31 1005.41
1011.09 1011.45 1011.85 1012.27 1012.70 1013.13 1013.54 1013.92 1014.25 1014.54 1014.77 1014.94 1015.08 1015.17 1015.23 1015.26 1015.27 1015.26 1015.22 1015.15 1015.03 1014.86 1014.62 1014.30 1013.89 1013.39 1012.79 1012.12 1011.37 1010.58 1009.76 1008.94 1008.15 1007.41 1006.73 1006.14 1005.65 1005.26 1004.97 1004.79 1004.72 1004.75 1004.88
1011.58 1011.94 1012.34 1012.75 1013.18 1013.60 1013.99 1014.35 1014.66 1014.91 1015.10 1015.23 1015.32 1015.36 1015.36 1015.34 1015.30 1015.25 1015.18 1015.09 1014.97 1014.80 1014.57 1014.27 1013.88 1013.40 1012.83 1012.16 1011.42 1010.61 1009.77 1008.92 1008.08 1007.29 1006.56 1005.93 1005.40 1004.98 1004.69 1004.51 1004.45 1004.49 1004.64
Thickness
5785 5781 5778 5775 5772 5768 5764 5760 5756 5753 5750 5747 5745 5743 5740 5738 5736 5734 5733 5731 5729 5727 5726 5725 5722 5721 5721 5721 5720 5717 5715 5711 5703 5698 5693 5689 5685 5683 5680 5678 5676 5673 5669
5787 5782 5778 5775 5772 5768 5764 5760 5757 5752 5749 5746 5743 5741 5738 5735 5733 5731 5729 5727 5725 5722 5721 5720 5718 5718 5715 5715 5714 5711 5708 5705 5700 5692 5687 5684 5680 5677 5674 5672 5671 5668 5664
5788 5782 5778 5774 5771 5767 5763 5759 5755 5750 5747 5744 5741 5738 5735 5732 5729 5727 5725 5723 5721 5719 5717 5715 5714 5712 5710 5710 5708 5706 5704 5702 5697 5690 5685 5680 5676 5672 5669 5667 5664 5661 5658
5788 5782 5777 5773 5769 5766 5762 5757 5753 5749 5745 5742 5738 5735 5732 5729 5726 5724 5722 5719 5717 5715 5713 5711 5709 5708 5706 5705 5703 5700 5698 5695 5691 5687 5681 5676 5671 5667 5665 5662 5658 5655 5652
5788 5782 5777 5773 5769 5764 5759 5755 5751 5747 5743 5739 5736 5733 5730 5727 5724 5720 5718 5716 5713 5710 5708 5706 5703 5700 5697 5697 5697 5694 5692 5690 5687 5682 5676 5671 5666 5661 5660 5657 5653 5650 5645
5786 5781 5776 5771 5766 5761 5757 5753 5748 5744 5740 5736 5733 5729 5726 5723 5716 5713 5713 5711 5709 5706 5703 5701 5699 5695 5691 5688 5686 5684 5682 5681 5678 5675 5670 5665 5660 5657 5654 5651 5647 5644 5638
5784 5779 5774 5770 5764 5759 5755 5750 5746 5741 5737 5732 5729 5725 5721 5715 5710 5708 5706 5706 5704 5700 5698 5695 5694 5690 5686 5684 5679 5675 5672 5669 5667 5666 5663 5659 5655 5651 5648 5644 5639 5637 5633
5781 5776 5771 5767 5761 5756 5751 5746 5742 5737 5732 5728 5724 5721 5717 5711 5706 5703 5701 5700 5698 5694 5691 5688 5685 5682 5679 5676 5674 5670 5667 5663 5660 5657 5654 5651 5648 5644 5640 5637 5633 5629 5625
5778 5772 5768 5764 5757 5751 5746 5742 5737 5732 5727 5723 5720 5716 5711 5706 5700 5697 5694 5695 5691 5687 5684 5680 5677 5674 5667 5665 5665 5662 5659 5655 5650 5646 5643 5640 5636 5633 5630 5630 5627 5625 5620
5775 5770 5766 5761 5754 5747 5742 5737 5733 5728 5723 5720 5715 5711 5706 5701 5694 5691 5687 5690 5685 5681 5677 5673 5667 5664 5659 5656 5657 5654 5650 5647 5645 5641 5636 5632 5629 5626 5622 5621 5621 5618 5615
5772 5767 5761 5757 5751 5745 5739 5733 5728 5724 5718 5714 5710 5706 5701 5695 5688 5684 5681 5682 5680 5676 5673 5668 5662 5655 5651 5648 5647 5646 5641 5639 5638 5635 5632 5628 5624 5621 5617 5614 5611 5610 5607
5765 5760 5755 5750 5746 5741 5734 5728 5723 5718 5712 5707 5703 5699 5696 5689 5683 5677 5673 5670 5669 5668 5665 5661 5655 5647 5643 5640 5639 5635 5632 5630 5633 5630 5627 5623 5619 5615 5611 5607 5602 5599 5595
5756 5751 5747 5742 5737 5733 5728 5722 5716 5711 5708 5703 5699 5696 5692 5686 5678 5671 5666 5663 5659 5659 5656 5649 5644 5639 5636 5634 5629 5627 5625 5627 5626 5624 5620 5617 5614 5609 5604 5599 5595 5590 5587
5749 5744 5739 5734 5728 5724 5720 5716 5711 5706 5702 5698 5694 5691 5687 5681 5676 5669 5664 5658 5652 5650 5647 5641 5636 5633 5630 5628 5624 5622 5621 5621 5619 5616 5613 5610 5606 5602 5598 5595 5591 5587 5583
5742 5736 5731 5727 5721 5715 5711 5707 5703 5699 5696 5691 5689 5685 5680 5674 5667 5661 5658 5655 5651 5647 5641 5638 5635 5632 5628 5626 5623 5619 5616 5614 5610 5608 5606 5602 5598 5595 5591 5588 5583 5581 5577
5733 5728 5725 5722 5715 5709 5703 5697 5690 5687 5682 5678 5675 5673 5670 5664 5658 5653 5648 5643 5639 5635 5632 5633 5631 5628 5625 5622 5618 5614 5610 5607 5604 5601 5598 5595 5591 5588 5584 5581 5577 5574 5572
5724 5720 5717 5713 5708 5702 5697 5693 5687 5677 5671 5667 5664 5660 5657 5652 5648 5644 5638 5634 5630 5625 5626 5626 5624 5621 5618 5615 5612 5608 5604 5600 5596 5593 5590 5587 5584 5581 5578 5574 5571 5568 5565
5715 5710 5707 5704 5701 5696 5691 5687 5683 5678 5671 5665 5657 5651 5647 5643 5639 5634 5630 5626 5625 5621 5622 5620 5617 5614 5611 5607 5604 5600 5596 5592 5588 5584 5582 5580 5577 5574 5571 5568 5565 5561 5559
5706 5703 5699 5696 5692 5688 5683 5680 5676 5671 5667 5662 5657 5647 5639 5634 5629 5625 5622 5624 5625 5621 5618 5614 5610 5607 5603 5599 5595 5591 5588 5584 5580 5577 5574 5571 5570 5566 5564 5561 5558 5552 5550
5695 5690 5687 5686 5683 5679 5675 5671 5668 5663 5660 5656 5652 5646 5638 5632 5629 5624 5620 5620 5619 5616 5612 5608 5605 5601 5596 5592 5588 5584 5581 5577 5573 5569 5567 5564 5562 5559 5556 5553 5551 5549 5546
5687 5681 5675 5675 5674 5671 5668 5663 5659 5655 5652 5649 5645 5640 5632 5630 5627 5623 5619 5616 5613 5610 5606 5601 5597 5593 5589 5585 5581 5578 5574 5571 5567 5564 5561 5558 5555 5552 5549 5547 5545 5543 5540
5677 5674 5669 5667 5664 5661 5658 5655 5650 5647 5644 5640 5637 5632 5622 5622 5621 5619 5614 5610 5606 5602 5598 5594 5590 5586 5582 5578 5574 5570 5567 5564 5562 5558 5555 5552 5549 5546 5544 5541 5539 5536 5533
5667 5665 5661 5657 5655 5650 5648 5646 5643 5640 5637 5633 5630 5626 5620 5617 5615 5611 5608 5604 5599 5595 5590 5586 5582 5579 5575 5570 5567 5564 5561 5559 5555 5552 5548 5545 5543 5541 5538 5535 5532 5529 5527
5659 5657 5653 5650 5647 5644 5641 5637 5635 5632 5629 5626 5622 5619 5615 5610 5607 5604 5600 5596 5592 5588 5584 5580 5576 5572 5567 5563 5560 5557 5554 5550 5547 5544 5541 5538 5536 5534 5531 5529 5526 5523 5520
5650 5648 5645 5641 5638 5635 5632 5629 5626 5624 5621 5618 5615 5611 5608 5604 5600 5596 5593 5589 5585 5581 5577 5573 5569 5565 5560 5556 5553 5550 5546 5541 5537 5535 5533 5531 5529 5526 5524 5521 5519 5516 5512
5641 5638 5636 5633 5630 5627 5624 5622 5619 5616 5614 5611 5607 5604 5601 5598 5594 5590 5586 5582 5579 5575 5570 5567 5563 5559 5554 5550 5546 5542 5537 5534 5530 5526 5524 5523 5521 5519 5516 5513 5511 5509 5506